Home   Weather   Montpellier   Past weeks
Flag for France

Past Weather in Montpellier, Occitanie, France — Yesterday and Last 2 Weeks

Now
66 °F

Sunny.


Feels Like: 66 °F
Forecast: 71 / 57 °F
Wind: 13 mph from Northwest

Location: Montpellier Airport

Current Time: May 19, 2019 at 2:40:35 pm

Latest Report: May 19, 2019 at 2:00 pm


Visibility: 10 mi

Pressure: 29.71 "Hg

Humidity: 49%

Dew Point: 46 °F

Location of MontpellierLocation

Past Weather in Montpellier — Graph

°F

Montpellier Temperature Yesterday

Maximum temperature yesterday: 70 °F (at 2:00 pm)
Minimum temperature yesterday: 52 °F (at 6:30 am)
Average temperature yesterday: 60 °F

High & Low Weather Summary for the Past Weeks

 TemperatureHumidityPressure
High73 °F (May 11, 3:00 pm)100% (May 8, 1:00 pm)30.21 "Hg (May 8, 1:00 pm)
Low41 °F (May 7, 6:00 am)22% (May 15, 2:30 pm)29.68 "Hg (May 17, 5:30 am)
Average60 °F58%29.92 "Hg
* Reported May 4 1:00 pm — May 19 1:30 pm, Montpellier. Weather by CustomWeather, © 2019

Note: Actual official high and low records may vary slightly from our data, if they occured in-between our weather recording intervals... More about our weather records

Advertising

Montpellier Weather History for the Previous 24 Hours

Scroll right to see more
 ConditionsComfort  
Time TempWeatherWind HumidityBarometerVisibility
1:30 pm
Sun, May 19
64 °FSunny.14 mph49%29.71 "Hg10 mi
1:00 pm64 °FSunny.13 mph49%29.71 "Hg10 mi
12:30 pm64 °FPassing clouds.10 mph49%29.71 "HgN/A
12:00 pm66 °FPassing clouds.7 mph49%29.71 "HgN/A
11:30 am64 °FPassing clouds.6 mph52%29.71 "HgN/A
11:00 am64 °FPassing clouds.9 mph52%29.71 "HgN/A
10:30 am64 °FPassing clouds.8 mph52%29.71 "HgN/A
10:00 am63 °FPassing clouds.8 mph59%29.71 "HgN/A
9:30 am59 °FSunny.7 mph63%29.71 "Hg10 mi
9:00 am57 °FSunny.6 mph67%29.71 "Hg10 mi
8:30 am55 °FSunny.8 mph72%29.71 "Hg10 mi
8:00 am54 °FSunny.7 mph72%29.71 "Hg10 mi
7:30 am52 °FSunny.7 mph77%29.71 "Hg10 mi
7:00 am52 °FSunny.8 mph77%29.71 "Hg10 mi
6:30 am52 °FSunny.7 mph77%29.71 "Hg10 mi
6:00 am52 °FClear.7 mph77%29.71 "Hg10 mi
5:30 am52 °FClear.7 mph77%29.71 "Hg10 mi
5:00 am52 °FClear.8 mph72%29.71 "Hg10 mi
4:30 am54 °FClear.8 mph67%29.71 "Hg10 mi
4:00 am55 °FClear.9 mph67%29.71 "Hg10 mi
3:30 am55 °FClear.12 mph67%29.71 "Hg10 mi
3:00 am55 °FClear.10 mph67%29.71 "Hg10 mi
2:30 am55 °FClear.10 mph67%29.74 "Hg10 mi
2:00 am55 °FClear.7 mph72%29.74 "Hg10 mi
1:30 am55 °FClear.8 mph72%29.74 "Hg10 mi
1:00 am55 °FClear.10 mph72%29.74 "Hg10 mi
12:30 am55 °FClear.10 mph67%29.74 "Hg10 mi
12:00 am59 °FClear.12 mph59%29.74 "Hg10 mi
11:30 pm
Sat, May 18
57 °FClear.8 mph63%29.74 "Hg10 mi
11:00 pm59 °FClear.7 mph59%29.74 "Hg10 mi
10:30 pm61 °FClear.10 mph55%29.74 "Hg10 mi
10:00 pm61 °FClear.8 mph55%29.74 "Hg10 mi
9:30 pm61 °FClear.6 mph59%29.74 "Hg10 mi
9:00 pm63 °FSunny.9 mph52%29.71 "Hg10 mi
8:30 pm64 °FSunny.10 mph49%29.71 "Hg10 mi
8:00 pm64 °FMild.12 mph52%29.71 "HgN/A
7:30 pm66 °FMild.17 mph46%29.68 "HgN/A
7:00 pm68 °FMild.16 mph43%29.68 "HgN/A
6:30 pm70 °FSunny.3 mph43%29.68 "Hg10 mi
6:00 pm66 °FSunny.5 mph56%29.68 "Hg10 mi
5:30 pm66 °FSunny.6 mph52%29.68 "Hg10 mi
5:00 pm66 °FSunny.7 mph56%29.68 "Hg10 mi
4:30 pm66 °FPassing clouds.7 mph52%29.68 "HgN/A
4:00 pm68 °FPassing clouds.6 mph46%29.68 "HgN/A
3:30 pm66 °FPassing clouds.5 mph49%29.68 "HgN/A
3:00 pm68 °FPassing clouds.3 mph46%29.68 "HgN/A
2:30 pm68 °FPassing clouds.9 mph49%29.68 "HgN/A
2:00 pm70 °FPartly sunny.7 mph53%29.68 "HgN/A
Weather by CustomWeather, © 2019

See weather overview